EN

Hourly Weather Bolshie Peti

Today, 29 October, Thursday

Time Temperature Precipitation Wind Pressure Humidity
00:00 +11°C° 0.1 mm 3 mps 754 mmHg 91%
01:00 +11°C° 0.1 mm 3 mps 753 mmHg 91%
02:00 +11°C° 0 mm 4 mps 753 mmHg 94%
03:00 +11°C° 0.1 mm 4 mps 753 mmHg 93%
04:00 +11°C° 0.1 mm 3 mps 753 mmHg 93%
05:00 +11°C° 0.1 mm 3 mps 753 mmHg 93%
06:00 +11°C° 0 mm 3 mps 753 mmHg 94%
07:00 +11°C° 0 mm 3 mps 753 mmHg 94%
08:00 +10°C° 0 mm 2 mps 753 mmHg 95%
09:00 +11°C° 0.1 mm 3 mps 753 mmHg 94%
10:00 +11°C° 0.1 mm 3 mps 753 mmHg 93%
11:00 +11°C° 0.1 mm 3 mps 753 mmHg 92%
12:00 +11°C° 0.1 mm 3 mps 753 mmHg 92%
13:00 +11°C° 0.1 mm 3 mps 752 mmHg 91%
14:00 +11°C° 0.1 mm 3 mps 752 mmHg 90%
15:00 +11°C° 0.4 mm 3 mps 752 mmHg 91%
16:00 +11°C° 0.4 mm 3 mps 752 mmHg 92%
17:00 +10°C° 0.4 mm 3 mps 752 mmHg 93%
18:00 +10°C° 0.1 mm 3 mps 752 mmHg 93%
19:00 +10°C° 0.1 mm 3 mps 752 mmHg 93%
20:00 +10°C° 0.1 mm 3 mps 752 mmHg 93%
21:00 +10°C° 0.1 mm 2 mps 752 mmHg 93%
22:00 +10°C° 0.1 mm 2 mps 751 mmHg 94%
23:00 +10°C° 0.1 mm 2 mps 751 mmHg 94%

Tomorrow, 30 October, Friday

Time Temperature Precipitation Wind Pressure Humidity
00:00 +10°C° 0.2 mm 2 mps 751 mmHg 95%
01:00 +10°C° 0.2 mm 2 mps 751 mmHg 95%
02:00 +11°C° 0.2 mm 1 mps 751 mmHg 96%
03:00 +10°C° 0.2 mm 1 mps 751 mmHg 96%
04:00 +10°C° 0.2 mm 1 mps 751 mmHg 97%
05:00 +10°C° 0.2 mm 1 mps 751 mmHg 97%
06:00 +10°C° 0.1 mm 1 mps 751 mmHg 97%
07:00 +10°C° 0.1 mm 1 mps 751 mmHg 97%
08:00 +10°C° 0.1 mm 1 mps 751 mmHg 96%
09:00 +10°C° 0.1 mm 1 mps 751 mmHg 95%
10:00 +11°C° 0.1 mm 1 mps 751 mmHg 94%
11:00 +11°C° 0.1 mm 1 mps 751 mmHg 93%
12:00 +11°C° 0.2 mm 1 mps 751 mmHg 93%
13:00 +10°C° 0.2 mm 0 mps 751 mmHg 93%
14:00 +10°C° 0.2 mm 0 mps 751 mmHg 93%
15:00 +10°C° 0.1 mm 0 mps 751 mmHg 94%
16:00 +10°C° 0.1 mm 0 mps 751 mmHg 95%
17:00 +9°C° 0.1 mm 0 mps 751 mmHg 95%
18:00 +9°C° 0.1 mm 0 mps 752 mmHg 96%
19:00 +9°C° 0.1 mm 0 mps 752 mmHg 96%
20:00 +9°C° 0.1 mm 0 mps 752 mmHg 96%
21:00 +9°C° 0.1 mm 0 mps 752 mmHg 96%
22:00 +10°C° 0.1 mm 1 mps 753 mmHg 97%
23:00 +10°C° 0.1 mm 1 mps 753 mmHg 97%

Day after tomorrow, 31 October, Saturday

Time Temperature Precipitation Wind Pressure Humidity
00:00 +10°C° 0.3 mm 1 mps 753 mmHg 97%
01:00 +10°C° 0.3 mm 1 mps 754 mmHg 97%
02:00 +10°C° 0.3 mm 1 mps 754 mmHg 97%
03:00 +8°C° 0.1 mm 2 mps 754 mmHg 96%
04:00 +8°C° 0.1 mm 2 mps 755 mmHg 95%
05:00 +8°C° 0.1 mm 2 mps 755 mmHg 94%
06:00 +8°C° 0 mm 2 mps 756 mmHg 94%
07:00 +8°C° 0 mm 2 mps 756 mmHg 93%
08:00 +7°C° 0 mm 2 mps 757 mmHg 93%
09:00 +8°C° 0 mm 2 mps 758 mmHg 90%
10:00 +9°C° 0 mm 3 mps 758 mmHg 86%
11:00 +9°C° 0 mm 3 mps 759 mmHg 83%
12:00 +9°C° 0 mm 2 mps 759 mmHg 81%
13:00 +9°C° 0 mm 2 mps 760 mmHg 79%
14:00 +10°C° 0 mm 2 mps 760 mmHg 77%
15:00 +9°C° 0 mm 2 mps 760 mmHg 80%
16:00 +9°C° 0 mm 1 mps 761 mmHg 84%
17:00 +8°C° 0 mm 1 mps 761 mmHg 87%
18:00 +7°C° 0 mm 1 mps 761 mmHg 87%
19:00 +7°C° 0 mm 1 mps 762 mmHg 88%
20:00 +7°C° 0 mm 1 mps 763 mmHg 89%
21:00 +6°C° 0 mm 1 mps 763 mmHg 89%
22:00 +6°C° 0 mm 1 mps 763 mmHg 89%
23:00 +6°C° 0 mm 1 mps 763 mmHg 90%

1 November, Sunday

Time Temperature Precipitation Wind Pressure Humidity
00:00 +5°C° 0 mm 1 mps 763 mmHg 90%
01:00 +5°C° 0 mm 1 mps 763 mmHg 90%
02:00 +5°C° 0 mm 1 mps 764 mmHg 90%
03:00 +5°C° 0 mm 1 mps 764 mmHg 90%
04:00 +4°C° 0 mm 1 mps 764 mmHg 90%
05:00 +4°C° 0 mm 1 mps 764 mmHg 90%
06:00 +4°C° 0 mm 1 mps 764 mmHg 89%
07:00 +4°C° 0 mm 1 mps 764 mmHg 89%
08:00 +4°C° 0 mm 1 mps 764 mmHg 88%
09:00 +5°C° 0 mm 1 mps 764 mmHg 85%
10:00 +6°C° 0 mm 1 mps 764 mmHg 82%
11:00 +7°C° 0 mm 1 mps 764 mmHg 78%
12:00 +8°C° 0 mm 1 mps 764 mmHg 78%
13:00 +8°C° 0 mm 1 mps 763 mmHg 78%
14:00 +8°C° 0 mm 1 mps 763 mmHg 78%
15:00 +7°C° 0 mm 1 mps 763 mmHg 82%
16:00 +6°C° 0 mm 2 mps 763 mmHg 86%
17:00 +5°C° 0 mm 2 mps 763 mmHg 90%
18:00 +4°C° 0 mm 2 mps 763 mmHg 90%
19:00 +4°C° 0 mm 2 mps 763 mmHg 90%
20:00 +4°C° 0 mm 2 mps 763 mmHg 90%
21:00 +4°C° 0 mm 2 mps 762 mmHg 90%
22:00 +4°C° 0 mm 2 mps 762 mmHg 90%
23:00 +3°C° 0 mm 2 mps 762 mmHg 90%

2 November, Monday

Time Temperature Precipitation Wind Pressure Humidity
00:00 +3°C° 0 mm 2 mps 762 mmHg 90%
01:00 +3°C° 0 mm 2 mps 762 mmHg 91%
02:00 +3°C° 0 mm 2 mps 762 mmHg 91%
03:00 +3°C° 0 mm 2 mps 762 mmHg 92%
04:00 +3°C° 0 mm 2 mps 761 mmHg 93%
05:00 +2°C° 0 mm 3 mps 761 mmHg 94%
06:00 +2°C° 0 mm 3 mps 761 mmHg 94%
07:00 +2°C° 0 mm 3 mps 761 mmHg 94%
08:00 +2°C° 0 mm 3 mps 761 mmHg 95%
09:00 +3°C° 0 mm 3 mps 761 mmHg 91%
10:00 +5°C° 0 mm 4 mps 761 mmHg 87%
11:00 +6°C° 0 mm 4 mps 761 mmHg 83%
12:00 +6°C° 0 mm 4 mps 761 mmHg 81%
13:00 +7°C° 0 mm 4 mps 761 mmHg 79%
14:00 +7°C° 0 mm 4 mps 761 mmHg 77%
15:00 +6°C° 0 mm 4 mps 761 mmHg 80%
16:00 +5°C° 0 mm 4 mps 760 mmHg 84%
17:00 +5°C° 0 mm 4 mps 760 mmHg 87%
18:00 +4°C° 0 mm 4 mps 760 mmHg 86%
19:00 +4°C° 0 mm 4 mps 761 mmHg 85%
20:00 +4°C° 0 mm 4 mps 761 mmHg 84%
21:00 +4°C° 0 mm 4 mps 761 mmHg 84%
22:00 +4°C° 0 mm 4 mps 761 mmHg 84%
23:00 +4°C° 0 mm 4 mps 761 mmHg 84%

3 November, Tuesday

Time Temperature Precipitation Wind Pressure Humidity
00:00 +3°C° 0 mm 4 mps 761 mmHg 86%
01:00 +3°C° 0 mm 4 mps 761 mmHg 87%
02:00 +3°C° 0 mm 4 mps 761 mmHg 89%
03:00 +3°C° 0 mm 4 mps 761 mmHg 90%
04:00 +3°C° 0 mm 4 mps 761 mmHg 92%
05:00 +3°C° 0 mm 4 mps 761 mmHg 93%
06:00 +4°C° 0 mm 4 mps 761 mmHg 94%
07:00 +4°C° 0 mm 4 mps 761 mmHg 94%
08:00 +4°C° 0 mm 4 mps 762 mmHg 95%
09:00 +5°C° 0 mm 4 mps 762 mmHg 93%
10:00 +6°C° 0 mm 4 mps 762 mmHg 91%
11:00 +6°C° 0 mm 5 mps 762 mmHg 89%
12:00 +7°C° 0 mm 4 mps 762 mmHg 88%
13:00 +7°C° 0 mm 4 mps 762 mmHg 88%
14:00 +7°C° 0 mm 4 mps 762 mmHg 88%
15:00 +7°C° 0 mm 4 mps 762 mmHg 88%
16:00 +7°C° 0 mm 4 mps 762 mmHg 89%
17:00 +7°C° 0 mm 4 mps 762 mmHg 90%
18:00 +7°C° 0 mm 4 mps 762 mmHg 90%
19:00 +7°C° 0 mm 4 mps 763 mmHg 90%
20:00 +7°C° 0 mm 4 mps 763 mmHg 91%
21:00 +8°C° 0 mm 3 mps 763 mmHg 91%
22:00 +9°C° 0 mm 3 mps 763 mmHg 90%
23:00 +9°C° 0 mm 3 mps 763 mmHg 90%
Show more